This is the latest recevied weather packets stored in our database for station/object G4KVI. If no packets are shown the sender has not sent any weather packets the latest 10 day(s).
| Time | Temp. | Humidity | Pressure | Rain* | Wind** | Luminosity | Snow |
|---|---|---|---|---|---|---|---|
| 1787993405 | 16.67° C | 93% | 1004.7 hPa | 0.51 mm | - | 115 W/m² | - |
| 1787993105 | 16.67° C | 93% | 1004.7 hPa | 0.51 mm | - | 156 W/m² | - |
| 1787992805 | 16.67° C | 93% | 1005 hPa | 0.51 mm | - | 155 W/m² | - |
| 1787992505 | 16.11° C | 92% | 1005 hPa | 0.51 mm | - | 154 W/m² | - |
| 1787992205 | 16.11° C | 92% | 1004.8 hPa | 0.51 mm | - | 174 W/m² | - |
| 1787991906 | 16.11° C | 92% | 1005.3 hPa | 0.76 mm | - | 188 W/m² | - |
| 1787991606 | 16.11° C | 92% | 1005.1 hPa | 0.76 mm | - | 239 W/m² | - |
| 1787991305 | 16.11° C | 92% | 1005.3 hPa | 1.02 mm | - | 74 W/m² | - |
| 1787991005 | 16.11° C | 92% | 1005.3 hPa | 1.52 mm | - | 69 W/m² | - |
| 1787990705 | 16.11° C | 92% | 1005.6 hPa | 1.78 mm | - | 104 W/m² | - |
| 1787990405 | 16.11° C | 93% | 1005.3 hPa | 1.78 mm | - | 91 W/m² | - |
| 1787990105 | 16.11° C | 93% | 1005.7 hPa | 1.78 mm | - | 89 W/m² | - |
| 1787989805 | 16.11° C | 92% | 1005.7 hPa | 1.52 mm | - | 125 W/m² | - |
| 1787989506 | 16.11° C | 93% | 1005.8 hPa | 1.78 mm | - | 80 W/m² | - |
| 1787989205 | 16.11° C | 93% | 1005.8 hPa | 2.03 mm | - | 50 W/m² | - |
| 1787988905 | 16.11° C | 93% | 1005.9 hPa | 2.29 mm | - | 33 W/m² | - |
| 1787988605 | 16.11° C | 93% | 1005.6 hPa | 2.29 mm | - | 17 W/m² | - |
| 1787988306 | 16.11° C | 93% | 1005.7 hPa | 2.29 mm | - | 17 W/m² | - |
| 1787988005 | 16.11° C | 93% | 1005.7 hPa | 2.54 mm | - | 32 W/m² | - |
| 1787987705 | 16.11° C | 93% | 1005.9 hPa | 2.54 mm | - | 30 W/m² | - |
| 1787987405 | 16.11° C | 93% | 1005.8 hPa | 2.29 mm | - | 23 W/m² | - |
| 1787987106 | 16.11° C | 93% | 1005.9 hPa | 2.03 mm | - | 13 W/m² | - |
| 1787986806 | 16.11° C | 94% | 1006 hPa | 2.29 mm | - | 22 W/m² | - |
| 1787986505 | 16.11° C | 94% | 1006.2 hPa | 2.54 mm | - | 41 W/m² | - |
| 1787986205 | 16.11° C | 94% | 1006.2 hPa | 2.79 mm | - | 13 W/m² | - |
* Rain latest hour (hover to see other rain measurements)
** Current wind speed in m/s (hover to see current wind gust speed)